• En España
  • Lista de países
  • Para 7 días
  • Temperatura del agua
  • Mapa Satelital
  • El tiempo en el mapa
  • Informadores
  • user-avatar
    Iniciar sesión

    Tiempo cada hora Pernik

    Hoy, 19 Septiembre, Miércoles

    Tiempo Temperatura Precipitaciones Viento Presión Humedad
    00:00 +14°C° 0 mm 1 mps 695 mmHg 81%
    01:00 +14°C° 0 mm 1 mps 695 mmHg 82%
    02:00 +14°C° 0 mm 1 mps 695 mmHg 84%
    03:00 +13°C° 0 mm 1 mps 695 mmHg 85%
    04:00 +13°C° 0 mm 1 mps 695 mmHg 85%
    05:00 +13°C° 0 mm 1 mps 695 mmHg 86%
    06:00 +14°C° 0 mm 1 mps 695 mmHg 79%
    07:00 +15°C° 0 mm 1 mps 696 mmHg 72%
    08:00 +18°C° 0 mm 1 mps 696 mmHg 65%
    09:00 +20°C° 0 mm 1 mps 696 mmHg 57%
    10:00 +22°C° 0 mm 1 mps 697 mmHg 48%
    11:00 +24°C° 0 mm 2 mps 697 mmHg 40%
    12:00 +25°C° 0 mm 2 mps 697 mmHg 37%
    13:00 +26°C° 0 mm 2 mps 697 mmHg 34%
    14:00 +27°C° 0 mm 2 mps 696 mmHg 30%
    15:00 +26°C° 0 mm 2 mps 696 mmHg 32%
    16:00 +26°C° 0 mm 3 mps 696 mmHg 33%
    17:00 +25°C° 0 mm 3 mps 695 mmHg 34%
    18:00 +23°C° 0 mm 2 mps 695 mmHg 41%
    19:00 +19°C° 0 mm 2 mps 695 mmHg 48%
    20:00 +16°C° 0 mm 1 mps 695 mmHg 55%
    21:00 +15°C° 0 mm 1 mps 695 mmHg 56%
    22:00 +15°C° 0 mm 1 mps 695 mmHg 57%
    23:00 +14°C° 0 mm 1 mps 695 mmHg 59%

    Mañana, 20 Septiembre, Jueves

    Tiempo Temperatura Precipitaciones Viento Presión Humedad
    00:00 +14°C° 0 mm 1 mps 695 mmHg 59%
    01:00 +13°C° 0 mm 1 mps 695 mmHg 60%
    02:00 +13°C° 0 mm 1 mps 695 mmHg 61%
    03:00 +13°C° 0 mm 1 mps 694 mmHg 62%
    04:00 +12°C° 0 mm 1 mps 694 mmHg 62%
    05:00 +12°C° 0 mm 1 mps 694 mmHg 63%
    06:00 +14°C° 0 mm 1 mps 694 mmHg 59%
    07:00 +15°C° 0 mm 1 mps 695 mmHg 54%
    08:00 +18°C° 0 mm 1 mps 695 mmHg 50%
    09:00 +20°C° 0 mm 1 mps 696 mmHg 43%
    10:00 +21°C° 0 mm 2 mps 696 mmHg 37%
    11:00 +24°C° 0 mm 2 mps 696 mmHg 31%
    12:00 +25°C° 0 mm 2 mps 696 mmHg 28%
    13:00 +26°C° 0 mm 2 mps 696 mmHg 25%
    14:00 +27°C° 0 mm 2 mps 696 mmHg 23%
    15:00 +26°C° 0 mm 2 mps 695 mmHg 24%
    16:00 +26°C° 0 mm 2 mps 695 mmHg 25%
    17:00 +25°C° 0 mm 3 mps 695 mmHg 27%
    18:00 +21°C° 0 mm 2 mps 694 mmHg 32%
    19:00 +19°C° 0 mm 2 mps 694 mmHg 37%
    20:00 +16°C° 0 mm 1 mps 694 mmHg 43%
    21:00 +15°C° 0 mm 1 mps 694 mmHg 43%
    22:00 +15°C° 0 mm 1 mps 694 mmHg 44%
    23:00 +14°C° 0 mm 1 mps 694 mmHg 44%

    Pasado mañana, 21 Septiembre, Viernes

    Tiempo Temperatura Precipitaciones Viento Presión Humedad
    00:00 +14°C° 0 mm 1 mps 694 mmHg 45%
    01:00 +13°C° 0 mm 1 mps 694 mmHg 45%
    02:00 +13°C° 0 mm 1 mps 694 mmHg 46%
    03:00 +12°C° 0 mm 1 mps 693 mmHg 46%
    04:00 +12°C° 0 mm 1 mps 693 mmHg 46%
    05:00 +12°C° 0 mm 1 mps 693 mmHg 47%
    06:00 +13°C° 0 mm 1 mps 694 mmHg 44%
    07:00 +15°C° 0 mm 1 mps 694 mmHg 42%
    08:00 +18°C° 0 mm 1 mps 695 mmHg 39%
    09:00 +20°C° 0 mm 1 mps 695 mmHg 35%
    10:00 +22°C° 0 mm 1 mps 695 mmHg 32%
    11:00 +25°C° 0 mm 1 mps 696 mmHg 28%
    12:00 +26°C° 0 mm 1 mps 696 mmHg 26%
    13:00 +27°C° 0 mm 1 mps 695 mmHg 24%
    14:00 +28°C° 0 mm 1 mps 695 mmHg 23%
    15:00 +27°C° 0 mm 1 mps 695 mmHg 24%
    16:00 +27°C° 0 mm 1 mps 694 mmHg 26%
    17:00 +26°C° 0 mm 1 mps 694 mmHg 27%
    18:00 +23°C° 0 mm 1 mps 694 mmHg 33%
    19:00 +20°C° 0 mm 1 mps 693 mmHg 39%
    20:00 +18°C° 0 mm 1 mps 693 mmHg 46%
    21:00 +16°C° 0 mm 1 mps 693 mmHg 47%
    22:00 +15°C° 0 mm 1 mps 693 mmHg 49%
    23:00 +15°C° 0 mm 1 mps 693 mmHg 51%

    22 Septiembre, Sábado

    Tiempo Temperatura Precipitaciones Viento Presión Humedad
    00:00 +14°C° 0 mm 1 mps 693 mmHg 52%
    01:00 +14°C° 0 mm 1 mps 693 mmHg 53%
    02:00 +14°C° 0 mm 1 mps 693 mmHg 53%
    03:00 +14°C° 0 mm 1 mps 693 mmHg 54%
    04:00 +13°C° 0 mm 1 mps 693 mmHg 55%
    05:00 +13°C° 0 mm 1 mps 693 mmHg 56%
    06:00 +15°C° 0 mm 1 mps 693 mmHg 52%
    07:00 +16°C° 0 mm 1 mps 694 mmHg 49%
    08:00 +19°C° 0 mm 1 mps 694 mmHg 46%
    09:00 +20°C° 0 mm 0 mps 694 mmHg 40%
    10:00 +23°C° 0 mm 0 mps 695 mmHg 34%
    11:00 +26°C° 0 mm 0 mps 695 mmHg 28%
    12:00 +26°C° 0 mm 0 mps 695 mmHg 26%
    13:00 +27°C° 0 mm 0 mps 695 mmHg 25%
    14:00 +30°C° 0 mm 1 mps 694 mmHg 24%
    15:00 +29°C° 0 mm 1 mps 694 mmHg 25%
    16:00 +28°C° 0 mm 1 mps 694 mmHg 27%
    17:00 +27°C° 0 mm 1 mps 693 mmHg 29%
    18:00 +25°C° 0 mm 1 mps 693 mmHg 33%
    19:00 +22°C° 0 mm 1 mps 693 mmHg 38%
    20:00 +20°C° 0 mm 1 mps 693 mmHg 43%
    21:00 +19°C° 0 mm 1 mps 693 mmHg 45%
    22:00 +18°C° 0 mm 1 mps 693 mmHg 46%
    23:00 +18°C° 0 mm 1 mps 693 mmHg 48%

    23 Septiembre, Domingo

    Tiempo Temperatura Precipitaciones Viento Presión Humedad
    00:00 +16°C° 0 mm 1 mps 693 mmHg 49%
    01:00 +16°C° 0 mm 1 mps 693 mmHg 49%
    02:00 +16°C° 0 mm 1 mps 693 mmHg 50%
    03:00 +15°C° 0 mm 1 mps 693 mmHg 53%
    04:00 +15°C° 0 mm 1 mps 693 mmHg 56%
    05:00 +15°C° 0 mm 1 mps 694 mmHg 59%
    06:00 +15°C° 0 mm 2 mps 694 mmHg 61%
    07:00 +16°C° 0 mm 2 mps 694 mmHg 63%
    08:00 +16°C° 0 mm 2 mps 695 mmHg 65%
    09:00 +18°C° 0 mm 2 mps 695 mmHg 60%
    10:00 +20°C° 0 mm 2 mps 696 mmHg 54%
    11:00 +23°C° 0 mm 2 mps 696 mmHg 49%
    12:00 +24°C° 0 mm 2 mps 696 mmHg 46%
    13:00 +25°C° 0 mm 2 mps 695 mmHg 43%
    14:00 +26°C° 0 mm 2 mps 695 mmHg 40%
    15:00 +25°C° 0 mm 2 mps 695 mmHg 41%
    16:00 +25°C° 0 mm 2 mps 695 mmHg 42%
    17:00 +24°C° 0 mm 2 mps 694 mmHg 44%
    18:00 +21°C° 0 mm 2 mps 694 mmHg 51%
    19:00 +20°C° 0 mm 1 mps 694 mmHg 59%
    20:00 +16°C° 0 mm 1 mps 694 mmHg 67%
    21:00 +16°C° 0 mm 1 mps 694 mmHg 68%
    22:00 +15°C° 0 mm 1 mps 694 mmHg 70%
    23:00 +15°C° 0 mm 1 mps 693 mmHg 71%

    24 Septiembre, Lunes

    Tiempo Temperatura Precipitaciones Viento Presión Humedad
    00:00 +15°C° 0 mm 1 mps 693 mmHg 72%
    01:00 +14°C° 0 mm 1 mps 693 mmHg 73%
    02:00 +14°C° 0 mm 1 mps 693 mmHg 74%
    03:00 +14°C° 0 mm 1 mps 692 mmHg 75%
    04:00 +14°C° 0 mm 1 mps 692 mmHg 77%
    05:00 +14°C° 0 mm 1 mps 692 mmHg 78%
    06:00 +15°C° 0 mm 1 mps 692 mmHg 72%
    07:00 +16°C° 0 mm 1 mps 692 mmHg 67%
    08:00 +19°C° 0 mm 1 mps 693 mmHg 62%
    09:00 +20°C° 0 mm 2 mps 693 mmHg 54%
    10:00 +24°C° 0 mm 2 mps 693 mmHg 46%
    11:00 +26°C° 0 mm 3 mps 693 mmHg 38%
    12:00 +27°C° 0 mm 3 mps 692 mmHg 36%
    13:00 +28°C° 0 mm 3 mps 692 mmHg 33%
    14:00 +29°C° 0 mm 3 mps 691 mmHg 31%
    15:00 +29°C° 0 mm 3 mps 691 mmHg 32%
    16:00 +28°C° 0 mm 3 mps 690 mmHg 34%
    17:00 +27°C° 0 mm 3 mps 689 mmHg 36%
    18:00 +25°C° 0 mm 3 mps 689 mmHg 44%
    19:00 +21°C° 0 mm 2 mps 688 mmHg 52%
    20:00 +18°C° 0 mm 2 mps 688 mmHg 60%
    21:00 +18°C° 0 mm 2 mps 688 mmHg 63%
    22:00 +17°C° 0 mm 2 mps 688 mmHg 67%
    23:00 +16°C° 0 mm 1 mps 687 mmHg 70%
    Mostrar más